Year,Month,Day,Hour,Minute,Value (Times are PST for temperature in C)
2015,06,29,00,00,18.90
2015,06,29,00,01,18.90
2015,06,29,00,02,18.90
2015,06,29,00,03,18.90
2015,06,29,00,04,18.90
2015,06,29,00,05,18.90
2015,06,29,00,06,18.90
2015,06,29,00,07,18.90
2015,06,29,00,08,19.00
2015,06,29,00,09,19.10
2015,06,29,00,10,19.10
2015,06,29,00,11,19.10
2015,06,29,00,12,19.10
2015,06,29,00,13,19.10
2015,06,29,00,14,19.10
2015,06,29,00,15,19.10
2015,06,29,00,16,19.10
2015,06,29,00,17,19.10
2015,06,29,00,18,19.10
2015,06,29,00,19,19.10
2015,06,29,00,20,19.10
2015,06,29,00,21,19.10
2015,06,29,00,22,19.10
2015,06,29,00,23,19.10
2015,06,29,00,24,19.10
2015,06,29,00,25,19.00
2015,06,29,00,26,19.10
2015,06,29,00,27,19.10
2015,06,29,00,28,19.10
2015,06,29,00,29,19.10
2015,06,29,00,30,19.10
2015,06,29,00,31,19.10
2015,06,29,00,32,19.10
2015,06,29,00,33,19.10
2015,06,29,00,34,19.10
2015,06,29,00,35,19.10
2015,06,29,00,36,19.10
2015,06,29,00,37,19.10
2015,06,29,00,38,19.10
2015,06,29,00,39,19.20
2015,06,29,00,40,19.20
2015,06,29,00,41,19.20
2015,06,29,00,42,19.20
2015,06,29,00,43,19.20
2015,06,29,00,44,19.20
2015,06,29,00,45,19.30
2015,06,29,00,46,19.30
2015,06,29,00,47,19.30
2015,06,29,00,48,19.30
2015,06,29,00,49,19.30
2015,06,29,00,50,19.30
2015,06,29,00,51,19.30
2015,06,29,00,52,19.30
2015,06,29,00,53,19.30
2015,06,29,00,54,19.30
2015,06,29,00,55,19.30
2015,06,29,00,56,19.20
2015,06,29,00,57,19.20
2015,06,29,00,58,19.20
2015,06,29,00,59,19.20
2015,06,29,01,00,19.20
2015,06,29,01,01,19.20
2015,06,29,01,02,19.20
2015,06,29,01,03,19.20
2015,06,29,01,04,19.20
2015,06,29,01,05,19.20
2015,06,29,01,06,19.20
2015,06,29,01,07,19.20
2015,06,29,01,08,19.20
2015,06,29,01,09,19.20
2015,06,29,01,10,19.20
2015,06,29,01,11,19.20
2015,06,29,01,12,19.20
2015,06,29,01,13,19.20
2015,06,29,01,14,19.20
2015,06,29,01,15,19.20
2015,06,29,01,16,19.20
2015,06,29,01,17,19.10
2015,06,29,01,18,19.10
2015,06,29,01,19,19.10
2015,06,29,01,20,19.10
2015,06,29,01,21,19.10
2015,06,29,01,22,19.10
2015,06,29,01,23,19.10
2015,06,29,01,24,19.10
2015,06,29,01,25,19.10
2015,06,29,01,26,19.10
2015,06,29,01,27,19.10
2015,06,29,01,28,19.10
2015,06,29,01,29,19.10
2015,06,29,01,30,19.10
2015,06,29,01,31,19.10
2015,06,29,01,32,19.10
2015,06,29,01,33,19.10
2015,06,29,01,34,19.10
2015,06,29,01,35,19.10
2015,06,29,01,36,19.10
2015,06,29,01,37,19.10
2015,06,29,01,38,19.10
2015,06,29,01,39,19.10
2015,06,29,01,40,19.10
2015,06,29,01,41,19.10
2015,06,29,01,42,19.10
2015,06,29,01,43,19.00
2015,06,29,01,44,18.90
2015,06,29,01,45,18.90
2015,06,29,01,46,18.90
2015,06,29,01,47,18.90
2015,06,29,01,48,18.90
2015,06,29,01,49,18.90
2015,06,29,01,50,18.90
2015,06,29,01,51,18.90
2015,06,29,01,52,18.90
2015,06,29,01,53,18.90
2015,06,29,01,54,18.90
2015,06,29,01,55,18.90
2015,06,29,01,56,18.90
2015,06,29,01,57,18.90
2015,06,29,01,58,18.90
2015,06,29,01,59,18.90
2015,06,29,02,00,18.90
2015,06,29,02,01,18.90
2015,06,29,02,02,18.90
2015,06,29,02,03,18.90
2015,06,29,02,04,18.90
2015,06,29,02,05,18.90
2015,06,29,02,06,18.90
2015,06,29,02,07,18.90
2015,06,29,02,08,18.90
2015,06,29,02,09,18.90
2015,06,29,02,10,18.90
2015,06,29,02,11,18.90
2015,06,29,02,12,18.90
2015,06,29,02,13,18.90
2015,06,29,02,14,18.90
2015,06,29,02,15,18.90
2015,06,29,02,16,18.90
2015,06,29,02,17,18.90
2015,06,29,02,18,19.10
2015,06,29,02,19,19.10
2015,06,29,02,20,19.10
2015,06,29,02,21,19.10
2015,06,29,02,22,19.10
2015,06,29,02,23,19.10
2015,06,29,02,24,19.20
2015,06,29,02,25,19.20
2015,06,29,02,26,19.20
2015,06,29,02,27,19.20
2015,06,29,02,28,19.20
2015,06,29,02,29,19.20
2015,06,29,02,30,19.30
2015,06,29,02,31,19.30
2015,06,29,02,32,19.30
2015,06,29,02,33,19.30
2015,06,29,02,34,19.30
2015,06,29,02,35,19.40
2015,06,29,02,36,19.40
2015,06,29,02,37,19.40
2015,06,29,02,38,19.40
2015,06,29,02,39,19.50
2015,06,29,02,40,19.50
2015,06,29,02,41,19.50
2015,06,29,02,42,19.60
2015,06,29,02,43,19.60
2015,06,29,02,44,19.60
2015,06,29,02,45,19.60
2015,06,29,02,46,19.70
2015,06,29,02,47,19.70
2015,06,29,02,48,19.70
2015,06,29,02,49,19.70
2015,06,29,02,50,19.70
2015,06,29,02,51,19.70
2015,06,29,02,52,19.70
2015,06,29,02,53,19.70
2015,06,29,02,54,19.70
2015,06,29,02,55,19.70
2015,06,29,02,56,19.70
2015,06,29,02,57,19.70
2015,06,29,02,58,19.70
2015,06,29,02,59,19.80
2015,06,29,03,00,19.80
2015,06,29,03,01,19.80
2015,06,29,03,02,19.80
2015,06,29,03,03,19.70
2015,06,29,03,04,19.70
2015,06,29,03,05,19.70
2015,06,29,03,06,19.70
2015,06,29,03,07,19.70
2015,06,29,03,08,19.70
2015,06,29,03,09,19.70
2015,06,29,03,10,19.70
2015,06,29,03,11,19.70
2015,06,29,03,12,19.70
2015,06,29,03,13,19.70
2015,06,29,03,14,19.70
2015,06,29,03,15,19.70
2015,06,29,03,16,19.70
2015,06,29,03,17,19.70
2015,06,29,03,18,19.70
2015,06,29,03,19,19.70
2015,06,29,03,20,19.70
2015,06,29,03,21,19.70
2015,06,29,03,22,19.70
2015,06,29,03,23,19.70
2015,06,29,03,24,19.60
2015,06,29,03,25,19.50
2015,06,29,03,26,19.40
2015,06,29,03,27,19.30
2015,06,29,03,28,19.20
2015,06,29,03,29,19.10
2015,06,29,03,30,19.00
2015,06,29,03,31,18.90
2015,06,29,03,32,18.80
2015,06,29,03,33,18.70
2015,06,29,03,34,18.50
2015,06,29,03,35,18.40
2015,06,29,03,36,18.30
2015,06,29,03,37,18.20
2015,06,29,03,38,18.10
2015,06,29,03,39,18.00
2015,06,29,03,40,17.90
2015,06,29,03,41,17.80
2015,06,29,03,42,17.70
2015,06,29,03,43,17.60
2015,06,29,03,44,17.50
2015,06,29,03,45,17.50
2015,06,29,03,46,17.40
2015,06,29,03,47,17.40
2015,06,29,03,48,17.30
2015,06,29,03,49,17.30
2015,06,29,03,50,17.30
2015,06,29,03,51,17.30
2015,06,29,03,52,17.30
2015,06,29,03,53,17.20
2015,06,29,03,54,17.20
2015,06,29,03,55,17.20
2015,06,29,03,56,17.20
2015,06,29,03,57,17.10
2015,06,29,03,58,17.10
2015,06,29,03,59,17.10
2015,06,29,04,00,17.10
2015,06,29,04,01,17.10
2015,06,29,04,02,17.00
2015,06,29,04,03,17.00
2015,06,29,04,04,17.00
2015,06,29,04,05,17.00
2015,06,29,04,06,17.00
2015,06,29,04,07,16.90
2015,06,29,04,08,16.90
2015,06,29,04,09,16.90
2015,06,29,04,10,16.90
2015,06,29,04,11,16.90
2015,06,29,04,12,16.90
2015,06,29,04,13,16.90
2015,06,29,04,14,16.80
2015,06,29,04,15,16.80
2015,06,29,04,16,16.80
2015,06,29,04,17,16.80
2015,06,29,04,18,16.80
2015,06,29,04,19,16.70
2015,06,29,04,20,16.70
2015,06,29,04,21,16.70
2015,06,29,04,22,16.70
2015,06,29,04,23,16.70
2015,06,29,04,24,16.70
2015,06,29,04,25,16.70
2015,06,29,04,26,16.70
2015,06,29,04,27,16.70
2015,06,29,04,28,16.70
2015,06,29,04,29,16.70
2015,06,29,04,30,16.70
2015,06,29,04,31,16.70
2015,06,29,04,32,16.70
2015,06,29,04,33,16.70
2015,06,29,04,34,16.70
2015,06,29,04,35,16.70
2015,06,29,04,36,16.70
2015,06,29,04,37,16.70
2015,06,29,04,38,16.70
2015,06,29,04,39,16.70
2015,06,29,04,40,16.70
2015,06,29,04,41,16.70
2015,06,29,04,42,16.70
2015,06,29,04,43,16.60
2015,06,29,04,44,16.60
2015,06,29,04,45,16.60
2015,06,29,04,46,16.60
2015,06,29,04,47,16.60
2015,06,29,04,48,16.60
2015,06,29,04,49,16.60
2015,06,29,04,50,16.60
2015,06,29,04,51,16.60
2015,06,29,04,52,16.60
2015,06,29,04,53,16.60
2015,06,29,04,54,16.60
2015,06,29,04,55,16.60
2015,06,29,04,56,16.60
2015,06,29,04,57,16.60
2015,06,29,04,58,16.60
2015,06,29,04,59,16.60
2015,06,29,05,00,16.60
2015,06,29,05,01,16.60
2015,06,29,05,02,16.60
2015,06,29,05,03,16.60
2015,06,29,05,04,16.60
2015,06,29,05,05,16.70
2015,06,29,05,06,16.70
2015,06,29,05,07,16.70
2015,06,29,05,08,16.70
2015,06,29,05,09,16.70
2015,06,29,05,10,16.70
2015,06,29,05,11,16.70
2015,06,29,05,12,16.70
2015,06,29,05,13,16.70
2015,06,29,05,14,16.70
2015,06,29,05,15,16.70
2015,06,29,05,16,16.70
2015,06,29,05,17,16.70
2015,06,29,05,18,16.70
2015,06,29,05,19,16.70
2015,06,29,05,20,16.70
2015,06,29,05,21,16.70
2015,06,29,05,22,16.70
2015,06,29,05,23,16.80
2015,06,29,05,24,16.80
2015,06,29,05,25,16.80
2015,06,29,05,26,16.90
2015,06,29,05,27,16.90
2015,06,29,05,28,17.00
2015,06,29,05,29,17.00
2015,06,29,05,30,17.00
2015,06,29,05,31,17.10
2015,06,29,05,32,17.10
2015,06,29,05,33,17.10
2015,06,29,05,34,17.10
2015,06,29,05,35,17.00
2015,06,29,05,36,16.90
2015,06,29,05,37,16.90
2015,06,29,05,38,16.80
2015,06,29,05,39,16.70
2015,06,29,05,40,16.70
2015,06,29,05,41,16.60
2015,06,29,05,42,16.50
2015,06,29,05,43,16.40
2015,06,29,05,44,16.40
2015,06,29,05,45,16.40
2015,06,29,05,46,16.30
2015,06,29,05,47,16.30
2015,06,29,05,48,16.20
2015,06,29,05,49,16.20
2015,06,29,05,50,16.10
2015,06,29,05,51,16.10
2015,06,29,05,52,16.00
2015,06,29,05,53,15.90
2015,06,29,05,54,15.80
2015,06,29,05,55,15.80
2015,06,29,05,56,15.70
2015,06,29,05,57,15.70
2015,06,29,05,58,15.60
2015,06,29,05,59,15.50
2015,06,29,06,00,15.40
2015,06,29,06,01,15.40
2015,06,29,06,02,15.30
2015,06,29,06,03,15.20
2015,06,29,06,04,15.10
2015,06,29,06,05,15.10
2015,06,29,06,06,15.10
2015,06,29,06,07,15.00
2015,06,29,06,08,15.00
2015,06,29,06,09,15.00
2015,06,29,06,10,14.90
2015,06,29,06,11,14.90
2015,06,29,06,12,14.90
2015,06,29,06,13,14.80
2015,06,29,06,14,14.80
2015,06,29,06,15,14.80
2015,06,29,06,16,14.80
2015,06,29,06,17,14.80
2015,06,29,06,18,14.80
2015,06,29,06,19,14.80
2015,06,29,06,20,14.70
2015,06,29,06,21,14.70
2015,06,29,06,22,14.60
2015,06,29,06,23,14.60
2015,06,29,06,24,14.50
2015,06,29,06,25,14.50
2015,06,29,06,26,14.50
2015,06,29,06,27,14.50
2015,06,29,06,28,14.50
2015,06,29,06,29,14.40
2015,06,29,06,30,14.40
2015,06,29,06,31,14.40
2015,06,29,06,32,14.40
2015,06,29,06,33,14.40
2015,06,29,06,34,14.40
2015,06,29,06,35,14.40
2015,06,29,06,36,14.40
2015,06,29,06,37,14.40
2015,06,29,06,38,14.50
2015,06,29,06,39,14.50
2015,06,29,06,40,14.50
2015,06,29,06,41,14.50
2015,06,29,06,42,14.60
2015,06,29,06,43,14.60
2015,06,29,06,44,14.60
2015,06,29,06,45,14.70
2015,06,29,06,46,14.70
2015,06,29,06,47,14.80
2015,06,29,06,48,14.80
2015,06,29,06,49,14.90
2015,06,29,06,50,14.90
2015,06,29,06,51,15.00
2015,06,29,06,52,15.00
2015,06,29,06,53,15.10
2015,06,29,06,54,15.10
2015,06,29,06,55,15.20
2015,06,29,06,56,15.20
2015,06,29,06,57,15.30
2015,06,29,06,58,15.30
2015,06,29,06,59,15.30
2015,06,29,07,00,15.30
2015,06,29,07,01,15.30
2015,06,29,07,02,15.30
2015,06,29,07,03,15.40
2015,06,29,07,04,15.40
2015,06,29,07,05,15.40
2015,06,29,07,06,15.50
2015,06,29,07,07,15.50
2015,06,29,07,08,15.60
2015,06,29,07,09,15.60
2015,06,29,07,10,15.70
2015,06,29,07,11,15.80
2015,06,29,07,12,15.80
2015,06,29,07,13,15.90
2015,06,29,07,14,16.00
2015,06,29,07,15,16.10
2015,06,29,07,16,16.10
2015,06,29,07,17,16.20
2015,06,29,07,18,16.30
2015,06,29,07,19,16.40
2015,06,29,07,20,16.50
2015,06,29,07,21,16.60
2015,06,29,07,22,16.70
2015,06,29,07,23,16.80
2015,06,29,07,24,16.80
2015,06,29,07,25,16.90
2015,06,29,07,26,17.00
2015,06,29,07,27,17.10
2015,06,29,07,28,17.20
2015,06,29,07,29,17.30
2015,06,29,07,30,17.40
2015,06,29,07,31,17.50
2015,06,29,07,32,17.50
2015,06,29,07,33,17.70
2015,06,29,07,34,17.80
2015,06,29,07,35,17.90
2015,06,29,07,36,18.00
2015,06,29,07,37,18.10
2015,06,29,07,38,18.20
2015,06,29,07,39,18.30
2015,06,29,07,40,18.40
2015,06,29,07,41,18.40
2015,06,29,07,42,18.50
2015,06,29,07,43,18.50
2015,06,29,07,44,18.50
2015,06,29,07,45,18.60
2015,06,29,07,46,18.60
2015,06,29,07,47,18.60
2015,06,29,07,48,18.60
2015,06,29,07,49,18.60
2015,06,29,07,50,18.60
2015,06,29,07,51,18.70
2015,06,29,07,52,18.70
2015,06,29,07,53,18.70
2015,06,29,07,54,18.70
2015,06,29,07,55,18.70
2015,06,29,07,56,18.70
2015,06,29,07,57,18.70
2015,06,29,07,58,18.70
2015,06,29,07,59,18.70
2015,06,29,08,00,18.70
2015,06,29,08,01,18.70
2015,06,29,08,02,18.70
2015,06,29,08,03,18.70
2015,06,29,08,04,18.70
2015,06,29,08,05,18.70
2015,06,29,08,06,18.60
2015,06,29,08,07,18.60
2015,06,29,08,08,18.50
2015,06,29,08,09,18.30
2015,06,29,08,10,18.20
2015,06,29,08,11,18.00
2015,06,29,08,12,17.90
2015,06,29,08,13,17.90
2015,06,29,08,14,17.90
2015,06,29,08,15,17.90
2015,06,29,08,16,17.90
2015,06,29,08,17,17.80
2015,06,29,08,18,17.80
2015,06,29,08,19,17.90
2015,06,29,08,20,17.90
2015,06,29,08,21,17.90
2015,06,29,08,22,17.90
2015,06,29,08,23,17.90
2015,06,29,08,24,17.90
2015,06,29,08,25,17.90
2015,06,29,08,26,17.80
2015,06,29,08,27,17.70
2015,06,29,08,28,17.50
2015,06,29,08,29,17.30
2015,06,29,08,30,17.10
2015,06,29,08,31,17.00
2015,06,29,08,32,16.80
2015,06,29,08,33,16.70
2015,06,29,08,34,16.60
2015,06,29,08,35,16.50
2015,06,29,08,36,16.40
2015,06,29,08,37,16.40
2015,06,29,08,38,16.40
2015,06,29,08,39,16.40
2015,06,29,08,40,16.40
2015,06,29,08,41,16.40
2015,06,29,08,42,16.40
2015,06,29,08,43,16.40
2015,06,29,08,44,16.40
2015,06,29,08,45,16.40
2015,06,29,08,46,16.50
2015,06,29,08,47,16.60
2015,06,29,08,48,16.60
2015,06,29,08,49,16.60
2015,06,29,08,50,16.60
2015,06,29,08,51,16.60
2015,06,29,08,52,16.60
2015,06,29,08,53,16.70
2015,06,29,08,54,16.70
2015,06,29,08,55,16.70
2015,06,29,08,56,16.70
2015,06,29,08,57,16.70
2015,06,29,08,58,16.70
2015,06,29,08,59,16.70
2015,06,29,09,00,16.70
2015,06,29,09,01,16.70
2015,06,29,09,02,16.80
2015,06,29,09,03,16.80
2015,06,29,09,04,16.80
2015,06,29,09,05,16.80
2015,06,29,09,06,16.80
2015,06,29,09,07,16.80
2015,06,29,09,08,16.80
2015,06,29,09,09,16.90
2015,06,29,09,10,17.00
2015,06,29,09,11,17.00
2015,06,29,09,12,17.10
2015,06,29,09,13,17.10
2015,06,29,09,14,17.20
2015,06,29,09,15,17.30
2015,06,29,09,16,17.30
2015,06,29,09,17,17.30
2015,06,29,09,18,17.40
2015,06,29,09,19,17.50
2015,06,29,09,20,17.50
2015,06,29,09,21,17.60
2015,06,29,09,22,17.70
2015,06,29,09,23,17.70
2015,06,29,09,24,17.70
2015,06,29,09,25,17.70
2015,06,29,09,26,17.70
2015,06,29,09,27,17.70
2015,06,29,09,28,17.70
2015,06,29,09,29,17.70
2015,06,29,09,30,17.70
2015,06,29,09,31,17.60
2015,06,29,09,32,17.50
2015,06,29,09,33,17.50
2015,06,29,09,34,17.40
2015,06,29,09,35,17.40
2015,06,29,09,36,17.40
2015,06,29,09,37,17.40
2015,06,29,09,38,17.40
2015,06,29,09,39,17.40
2015,06,29,09,40,17.40
2015,06,29,09,41,17.50
2015,06,29,09,42,17.50
2015,06,29,09,43,17.60
2015,06,29,09,44,17.70
2015,06,29,09,45,17.80
2015,06,29,09,46,17.90
2015,06,29,09,47,18.10
2015,06,29,09,48,18.10
2015,06,29,09,49,18.20
2015,06,29,09,50,18.20
2015,06,29,09,51,18.30
2015,06,29,09,52,18.40
2015,06,29,09,53,18.50
2015,06,29,09,54,18.60
2015,06,29,09,55,18.70
2015,06,29,09,56,18.70
2015,06,29,09,57,18.80
2015,06,29,09,58,18.80
2015,06,29,09,59,18.90
2015,06,29,10,00,19.00
2015,06,29,10,01,19.20
2015,06,29,10,02,19.30
2015,06,29,10,03,19.40
2015,06,29,10,04,19.50
2015,06,29,10,05,19.60
2015,06,29,10,06,19.70
2015,06,29,10,07,19.80
2015,06,29,10,08,19.90
2015,06,29,10,09,19.90
2015,06,29,10,10,20.00
2015,06,29,10,11,20.10
2015,06,29,10,12,20.20
2015,06,29,10,13,20.20
2015,06,29,10,14,20.30
2015,06,29,10,15,20.30
2015,06,29,10,16,20.20
2015,06,29,10,17,20.10
2015,06,29,10,18,20.00
2015,06,29,10,19,19.90
2015,06,29,10,20,19.70
2015,06,29,10,21,19.70
2015,06,29,10,22,19.70
2015,06,29,10,23,19.60
2015,06,29,10,24,19.60
2015,06,29,10,25,19.70
2015,06,29,10,26,19.80
2015,06,29,10,27,19.90
2015,06,29,10,28,19.90
2015,06,29,10,29,20.00
2015,06,29,10,30,20.10
2015,06,29,10,31,20.20
2015,06,29,10,32,20.30
2015,06,29,10,33,20.40
2015,06,29,10,34,20.60
2015,06,29,10,35,20.70
2015,06,29,10,36,20.70
2015,06,29,10,37,20.80
2015,06,29,10,38,20.80
2015,06,29,10,39,20.90
2015,06,29,10,40,21.00
2015,06,29,10,41,21.10
2015,06,29,10,42,21.10
2015,06,29,10,43,21.30
2015,06,29,10,44,21.30
2015,06,29,10,45,21.30
2015,06,29,10,46,21.30
2015,06,29,10,47,21.30
2015,06,29,10,48,21.30
2015,06,29,10,49,21.30
2015,06,29,10,50,21.10
2015,06,29,10,51,21.10
2015,06,29,10,52,21.00
2015,06,29,10,53,21.10
2015,06,29,10,54,21.10
2015,06,29,10,55,21.20
2015,06,29,10,56,21.30
2015,06,29,10,57,21.30
2015,06,29,10,58,21.30
2015,06,29,10,59,21.20
2015,06,29,11,00,21.10
2015,06,29,11,01,21.10
2015,06,29,11,02,21.20
2015,06,29,11,03,21.20
2015,06,29,11,04,21.20
2015,06,29,11,05,21.30
2015,06,29,11,06,21.20
2015,06,29,11,07,21.10
2015,06,29,11,08,21.10
2015,06,29,11,09,21.10
2015,06,29,11,10,21.20
2015,06,29,11,11,21.10
2015,06,29,11,12,21.00
2015,06,29,11,13,20.90
2015,06,29,11,14,20.90
2015,06,29,11,15,21.00
2015,06,29,11,16,21.10
2015,06,29,11,17,21.20
2015,06,29,11,18,21.30
2015,06,29,11,19,21.40
2015,06,29,11,20,21.40
2015,06,29,11,21,21.40
2015,06,29,11,22,21.40
2015,06,29,11,23,21.30
2015,06,29,11,24,21.30
2015,06,29,11,25,21.20
2015,06,29,11,26,21.10
2015,06,29,11,27,21.10
2015,06,29,11,28,21.10
2015,06,29,11,29,21.10
2015,06,29,11,30,21.20
2015,06,29,11,31,21.30
2015,06,29,11,32,21.30
2015,06,29,11,33,21.40
2015,06,29,11,34,21.50
2015,06,29,11,35,21.70
2015,06,29,11,36,21.80
2015,06,29,11,37,21.90
2015,06,29,11,38,21.90
2015,06,29,11,39,21.90
2015,06,29,11,40,21.90
2015,06,29,11,41,22.00
2015,06,29,11,42,22.10
2015,06,29,11,43,22.20
2015,06,29,11,44,22.30
2015,06,29,11,45,22.40
2015,06,29,11,46,22.60
2015,06,29,11,47,22.60
2015,06,29,11,48,22.70
2015,06,29,11,49,22.70
2015,06,29,11,50,22.80
2015,06,29,11,51,22.80
2015,06,29,11,52,22.90
2015,06,29,11,53,22.90
2015,06,29,11,54,23.10
2015,06,29,11,55,23.20
2015,06,29,11,56,23.30
2015,06,29,11,57,23.30
2015,06,29,11,58,23.40
2015,06,29,11,59,23.50
2015,06,29,12,00,23.60
2015,06,29,12,01,23.70
2015,06,29,12,02,23.70
2015,06,29,12,03,23.90
2015,06,29,12,04,24.00
2015,06,29,12,05,24.10
2015,06,29,12,06,24.10
2015,06,29,12,07,24.00
2015,06,29,12,08,23.90
2015,06,29,12,09,23.80
2015,06,29,12,10,23.70
2015,06,29,12,11,23.60
2015,06,29,12,12,23.60
2015,06,29,12,13,23.60
2015,06,29,12,14,23.70
2015,06,29,12,15,23.70
2015,06,29,12,16,23.70
2015,06,29,12,17,23.50
2015,06,29,12,18,23.40
2015,06,29,12,19,23.40
2015,06,29,12,20,23.30
2015,06,29,12,21,23.30
2015,06,29,12,22,23.30
2015,06,29,12,23,23.30
2015,06,29,12,24,23.30
2015,06,29,12,25,23.30
2015,06,29,12,26,23.30
2015,06,29,12,27,23.30
2015,06,29,12,28,23.40
2015,06,29,12,29,23.60
2015,06,29,12,30,23.70
2015,06,29,12,31,23.90
2015,06,29,12,32,24.10
2015,06,29,12,33,24.30
2015,06,29,12,34,24.50
2015,06,29,12,35,24.70
2015,06,29,12,36,24.90
2015,06,29,12,37,25.10
2015,06,29,12,38,25.20
2015,06,29,12,39,25.20
2015,06,29,12,40,25.30
2015,06,29,12,41,25.30
2015,06,29,12,42,25.40
2015,06,29,12,43,25.40
2015,06,29,12,44,25.40
2015,06,29,12,45,25.30
2015,06,29,12,46,25.30
2015,06,29,12,47,25.30
2015,06,29,12,48,25.30
2015,06,29,12,49,25.30
2015,06,29,12,50,25.30
2015,06,29,12,51,25.30
2015,06,29,12,52,25.30
2015,06,29,12,53,25.30
2015,06,29,12,54,25.10
2015,06,29,12,55,25.00
2015,06,29,12,56,24.90
2015,06,29,12,57,24.90
2015,06,29,12,58,24.90
2015,06,29,12,59,24.90
2015,06,29,13,00,24.80
2015,06,29,13,01,24.60
2015,06,29,13,02,24.40
2015,06,29,13,03,24.20
2015,06,29,13,04,24.00
2015,06,29,13,05,23.90
2015,06,29,13,06,24.00
2015,06,29,13,07,24.10
2015,06,29,13,08,24.20
2015,06,29,13,09,24.00
2015,06,29,13,10,23.80
2015,06,29,13,11,23.70
2015,06,29,13,12,23.70
2015,06,29,13,13,23.80
2015,06,29,13,14,24.00
2015,06,29,13,15,24.10
2015,06,29,13,16,24.10
2015,06,29,13,17,23.90
2015,06,29,13,18,23.60
2015,06,29,13,19,23.30
2015,06,29,13,20,23.30
2015,06,29,13,21,23.10
2015,06,29,13,22,23.00
2015,06,29,13,23,22.90
2015,06,29,13,24,23.10
2015,06,29,13,25,23.20
2015,06,29,13,26,23.30
2015,06,29,13,27,23.30
2015,06,29,13,28,23.50
2015,06,29,13,29,23.50
2015,06,29,13,30,23.40
2015,06,29,13,31,23.20
2015,06,29,13,32,22.90
2015,06,29,13,33,22.80
2015,06,29,13,34,22.60
2015,06,29,13,35,22.50
2015,06,29,13,36,22.50
2015,06,29,13,37,22.60
2015,06,29,13,38,22.80
2015,06,29,13,39,22.90
2015,06,29,13,40,22.90
2015,06,29,13,41,22.80
2015,06,29,13,42,22.80
2015,06,29,13,43,22.80
2015,06,29,13,44,22.80
2015,06,29,13,45,22.70
2015,06,29,13,46,22.60
2015,06,29,13,47,22.60
2015,06,29,13,48,22.60
2015,06,29,13,49,22.80
2015,06,29,13,50,22.80
2015,06,29,13,51,23.00
2015,06,29,13,52,23.20
2015,06,29,13,53,23.40
2015,06,29,13,54,23.60
2015,06,29,13,55,23.80
2015,06,29,13,56,23.80
2015,06,29,13,57,23.90
2015,06,29,13,58,23.90
2015,06,29,13,59,24.00
2015,06,29,14,00,24.10
2015,06,29,14,01,24.00
2015,06,29,14,02,24.10
2015,06,29,14,03,24.10
2015,06,29,14,04,24.10
2015,06,29,14,05,24.10
2015,06,29,14,06,24.10
2015,06,29,14,07,24.10
2015,06,29,14,08,24.10
2015,06,29,14,09,24.10
2015,06,29,14,10,24.20
2015,06,29,14,11,24.40
2015,06,29,14,12,24.60
2015,06,29,14,13,25.00
2015,06,29,14,14,25.30
2015,06,29,14,15,25.60
2015,06,29,14,16,25.90
2015,06,29,14,17,26.10
2015,06,29,14,18,26.40
2015,06,29,14,19,26.70
2015,06,29,14,20,26.90
2015,06,29,14,21,27.10
2015,06,29,14,22,27.30
2015,06,29,14,23,27.40
2015,06,29,14,24,27.70
2015,06,29,14,25,27.90
2015,06,29,14,26,28.10
2015,06,29,14,27,28.20
2015,06,29,14,28,28.50
2015,06,29,14,29,28.70
2015,06,29,14,30,28.80
2015,06,29,14,31,28.90
2015,06,29,14,32,28.90
2015,06,29,14,33,29.00
2015,06,29,14,34,29.10
2015,06,29,14,35,29.20
2015,06,29,14,36,29.20
2015,06,29,14,37,29.20
2015,06,29,14,38,29.20
2015,06,29,14,39,29.20
2015,06,29,14,40,29.20
2015,06,29,14,41,29.10
2015,06,29,14,42,29.10
2015,06,29,14,43,29.10
2015,06,29,14,44,29.10
2015,06,29,14,45,29.20
2015,06,29,14,46,29.20
2015,06,29,14,47,29.20
2015,06,29,14,48,29.20
2015,06,29,14,49,29.20
2015,06,29,14,50,29.20
2015,06,29,14,51,29.10
2015,06,29,14,52,29.20
2015,06,29,14,53,29.30
2015,06,29,14,54,29.20
2015,06,29,14,55,29.30
2015,06,29,14,56,29.20
2015,06,29,14,57,29.20
2015,06,29,14,58,29.20
2015,06,29,14,59,29.10
2015,06,29,15,00,29.10
2015,06,29,15,01,29.20
2015,06,29,15,02,29.20
2015,06,29,15,03,29.30
2015,06,29,15,04,29.40
2015,06,29,15,05,29.50
2015,06,29,15,06,29.40
2015,06,29,15,07,29.40
2015,06,29,15,08,29.50
2015,06,29,15,09,29.60
2015,06,29,15,10,29.50
2015,06,29,15,11,29.40
2015,06,29,15,12,29.30
2015,06,29,15,13,29.20
2015,06,29,15,14,29.20
2015,06,29,15,15,29.20
2015,06,29,15,16,29.20
2015,06,29,15,17,29.20
2015,06,29,15,18,29.30
2015,06,29,15,19,29.30
2015,06,29,15,20,29.30
2015,06,29,15,21,29.30
2015,06,29,15,22,29.40
2015,06,29,15,23,29.40
2015,06,29,15,24,29.50
2015,06,29,15,25,29.60
2015,06,29,15,26,29.70
2015,06,29,15,27,29.80
2015,06,29,15,28,29.80
2015,06,29,15,29,29.70
2015,06,29,15,30,29.60
2015,06,29,15,31,29.50
2015,06,29,15,32,29.40
2015,06,29,15,33,29.30
2015,06,29,15,34,29.30
2015,06,29,15,35,29.30
2015,06,29,15,36,29.20
2015,06,29,15,37,29.20
2015,06,29,15,38,29.20
2015,06,29,15,39,29.20
2015,06,29,15,40,29.20
2015,06,29,15,41,29.20
2015,06,29,15,42,29.10
2015,06,29,15,43,29.00
2015,06,29,15,44,28.90
2015,06,29,15,45,28.80
2015,06,29,15,46,28.80
2015,06,29,15,47,28.80
2015,06,29,15,48,28.80
2015,06,29,15,49,28.80
2015,06,29,15,50,28.80
2015,06,29,15,51,28.80
2015,06,29,15,52,28.80
2015,06,29,15,53,28.80
2015,06,29,15,54,28.80
2015,06,29,15,55,28.80
2015,06,29,15,56,28.80
2015,06,29,15,57,28.80
2015,06,29,15,58,28.90
2015,06,29,15,59,28.90
2015,06,29,16,00,29.00
2015,06,29,16,01,29.10
2015,06,29,16,02,29.10
2015,06,29,16,03,29.20
2015,06,29,16,04,29.30
2015,06,29,16,05,29.30
2015,06,29,16,06,29.30
2015,06,29,16,07,29.30
2015,06,29,16,08,29.30
2015,06,29,16,09,29.30
2015,06,29,16,10,29.30
2015,06,29,16,11,29.20
2015,06,29,16,12,29.10
2015,06,29,16,13,29.00
2015,06,29,16,14,28.90
2015,06,29,16,15,29.00
2015,06,29,16,16,29.00
2015,06,29,16,17,29.00
2015,06,29,16,18,29.00
2015,06,29,16,19,28.90
2015,06,29,16,20,28.90
2015,06,29,16,21,28.70
2015,06,29,16,22,28.70
2015,06,29,16,23,28.70
2015,06,29,16,24,28.80
2015,06,29,16,25,28.70
2015,06,29,16,26,28.70
2015,06,29,16,27,28.70
2015,06,29,16,28,28.70
2015,06,29,16,29,28.60
2015,06,29,16,30,28.60
2015,06,29,16,31,28.60
2015,06,29,16,32,28.60
2015,06,29,16,33,28.60
2015,06,29,16,34,28.60
2015,06,29,16,35,28.60
2015,06,29,16,36,28.50
2015,06,29,16,37,28.40
2015,06,29,16,38,28.40
2015,06,29,16,39,28.50
2015,06,29,16,40,28.60
2015,06,29,16,41,28.70
2015,06,29,16,42,28.70
2015,06,29,16,43,28.70
2015,06,29,16,44,28.60
2015,06,29,16,45,28.60
2015,06,29,16,46,28.60
2015,06,29,16,47,28.50
2015,06,29,16,48,28.40
2015,06,29,16,49,28.50
2015,06,29,16,50,28.50
2015,06,29,16,51,28.40
2015,06,29,16,52,28.30
2015,06,29,16,53,28.30
2015,06,29,16,54,28.30
2015,06,29,16,55,28.30
2015,06,29,16,56,28.30
2015,06,29,16,57,28.40
2015,06,29,16,58,28.40
2015,06,29,16,59,28.40
2015,06,29,17,00,28.40
2015,06,29,17,01,28.40
2015,06,29,17,02,28.30
2015,06,29,17,03,28.30
2015,06,29,17,04,28.30
2015,06,29,17,05,28.30
2015,06,29,17,06,28.20
2015,06,29,17,07,28.20
2015,06,29,17,08,28.20
2015,06,29,17,09,28.20
2015,06,29,17,10,28.20
2015,06,29,17,11,28.20
2015,06,29,17,12,28.30
2015,06,29,17,13,28.30
2015,06,29,17,14,28.30
2015,06,29,17,15,28.40
2015,06,29,17,16,28.30
2015,06,29,17,17,28.30
2015,06,29,17,18,28.30
2015,06,29,17,19,28.40